Temp
20 21 21 20 24 24 22 20 21 20 19 15 14 17 18 15 17 17 10 10 10 9 9 8 9 8 7 6 6 6 6 6 6 5 5 6 6 6 6 6 6 7 7 6 7 7 7 7 6
20 21 20 21 24 24 22 21 20 19 16 14 14 15 16 15 11 9 9 10 9 9 9 7 8 6 6 6 6 6 5 6 5 5 5 6 6 6 5 6 6 6 6 6 6 6 6 6 6
20 21 22 24 24 23 23 20 19 16 14 15 15 13 14 13 10 10 9 10 10 9 9 7 7 7 6 9 9 9 9 7 5 6 6 5 5 5 5 6 6 6 5 5 5 5 5 4 5
20 20 21 24 22 20 21 20 18 16 14 14 15 16 11 11 10 9 10 10 9 9 7 8 9 9 9 9 9 9 7 6 5 5 5 4 4 4 5 5 5 4 5 4 5 4 4 4 4
20 21 24 23 21 20 20 19 17 18 17 16 15 16 13 10 11 9 10 9 8 8 7 6 7 9 9 9 9 9 8 9 9 9 8 7 7 4 4 4 4 4 4 4 4 4 3 3 3
21 21 24 23 21 19 19 17 17 18 17 15 15 15 13 10 10 9 9 8 7 8 7 6 9 9 8 8 9 9 9 9 9 9 8 8 8 4 6 4 4 3 3 4 4 3 3 6 5
22 23 22 22 21 20 20 17 18 18 17 17 15 17 12 10 8 8 8 8 8 7 8 9 8 8 8 8 7 8 9 9 9 9 9 8 8 8 8 7 7 7 7 7 7 7 8 8 7
19 22 21 21 21 21 18 17 15 17 17 13 13 17 16 11 9 9 9 9 8 9 9 9 9 9 8 8 8 8 9 9 9 9 9 8 8 8 8 8 8 8 7 7 8 8 8 8 8
19 22 22 20 20 20 16 17 14 14 14 13 13 13 12 10 11 10 9 9 9 9 9 9 9 9 9 8 8 8 8 9 9 8 8 8 8 8 8 8 7 7 7 7 7 8 8 8 8
20 22 21 19 19 19 17 17 16 15 15 15 13 12 12 12 11 10 9 8 9 9 9 9 9 9 9 9 8 8 8 8 8 8 8 8 8 8 8 8 7 7 7 7 7 7 7 7 7
18 21 18 17 17 17 17 16 15 17 17 17 16 13 12 11 9 9 9 9 8 9 9 9 9 9 8 8 8 8 8 8 8 8 8 8 8 8 8 7 7 7 7 6 7 7 7 6 6
20 17 17 16 15 16 17 16 16 16 18 15 15 14 13 10 10 10 10 9 8 10 9 9 9 9 9 8 8 8 8 8 8 8 8 8 8 7 7 7 7 7 7 7 6 6 6 6 5
20 17 16 15 15 15 14 16 17 15 15 14 15 14 13 11 10 10 10 9 8 9 10 10 10 9 9 8 8 8 8 8 7 8 8 7 7 7 7 7 7 7 7 7 6 6 7 6 5
16 16 16 15 15 15 16 16 14 17 15 13 14 13 12 12 11 10 10 9 9 9 9 10 9 9 9 9 8 8 8 8 8 7 7 7 7 7 7 7 7 7 7 7 7 7 7 6 6
16 19 17 17 16 17 14 17 16 17 14 14 13 14 12 12 11 11 11 10 9 9 9 10 9 9 9 9 8 8 8 8 7 7 7 7 7 7 7 7 6 7 7 7 6 7 6 6 5
19 19 21 18 16 15 15 22 19 15 14 15 15 14 12 11 11 11 10 10 9 9 10 10 9 9 9 9 8 8 8 7 7 7 7 7 7 7 7 6 6 6 6 6 6 6 6 6 6
21 22 21 20 16 16 16 21 19 13 14 16 15 14 13 12 11 11 11 11 10 10 10 10 10 9 9 9 8 8 8 8 7 7 7 7 7 7 7 6 6 6 6 6 6 6 6 5 6
21 21 21 20 18 16 17 18 20 16 14 16 16 15 14 13 12 11 11 11 11 11 10 10 10 9 9 9 8 8 8 8 8 7 7 7 7 7 6 6 6 6 6 6 6 5 5 5 5
19 19 20 20 17 16 18 19 20 19 16 15 16 16 15 14 13 12 11 12 11 11 11 11 10 10 10 9 9 9 9 8 8 8 7 7 7 6 6 6 6 6 5 5 5 5 4 3 5
18 19 21 19 16 15 19 19 21 18 18 16 16 16 16 14 13 12 13 13 12 12 12 11 11 10 10 10 9 9 8 8 8 8 8 7 7 7 6 6 6 6 5 5 5 5 4 3 4
19 19 19 17 17 17 17 23 22 17 14 13 13 15 16 15 14 13 13 13 13 12 12 12 12 11 11 10 9 9 9 9 8 8 8 7 7 7 6 6 6 5 5 5 5 5 4 3 1
19 16 16 16 18 21 18 24 24 21 21 17 17 15 14 14 13 14 13 14 14 14 13 13 12 12 11 10 10 9 9 9 9 8 8 7 7 7 7 6 6 5 5 5 4 4 4 4 2
18 15 15 15 17 17 19 20 26 21 23 22 20 17 16 15 14 14 15 15 15 14 14 14 13 12 11 11 10 10 9 9 8 8 8 7 7 7 7 7 6 6 5 5 4 4 4 3 3
14 15 15 15 17 21 18 19 25 24 22 22 20 18 16 16 17 17 16 16 16 15 15 14 13 13 12 11 11 10 10 10 9 9 8 8 8 7 7 7 6 6 5 5 5 4 4 3 2
16 18 22 22 22 23 16 18 24 22 20 19 19 18 17 18 19 20 19 19 18 17 16 15 14 13 13 12 11 11 11 10 9 9 8 8 8 8 7 7 6 6 6 5 5 4 4 3 3
16 17 20 20 21 22 14 20 24 20 18 17 16 16 18 19 20 20 20 20 19 19 17 16 16 15 13 13 12 12 11 10 10 9 9 8 8 7 7 7 6 6 6 5 5 4 4 3 3
16 18 15 17 14 17 21 21 22 19 20 17 17 16 18 19 19 19 19 18 18 18 18 17 16 16 15 14 13 12 12 11 11 10 9 9 8 8 7 7 6 6 6 5 5 5 4 3 3
15 14 18 18 18 20 22 20 22 22 22 20 19 18 18 18 19 18 18 17 17 17 17 17 17 16 15 14 13 13 12 11 11 10 10 9 8 8 7 7 6 6 6 5 5 5 4 4 3
15 16 15 15 17 19 20 23 23 22 22 21 21 19 18 17 18 16 16 17 17 17 17 17 16 16 15 15 14 13 13 12 11 11 10 10 9 8 8 7 6 6 6 5 5 5 4 4 4
14 16 18 18 17 15 15 19 20 21 20 18 19 18 17 17 17 18 18 17 17 17 17 16 16 16 15 14 14 13 13 12 12 11 11 10 9 8 8 7 7 6 6 5 5 5 5 4 4
Height
1564 1563 1563 1563 1563 1559 1572 1578 1578 1582 1584 1591 1591 1589 1589 1592 1590 1592 1597 1599 1601 1603 1604 1604 1602 1602 1603 1602 1601 1599 1598 1597 1596 1595 1593 1593 1592 1590 1589 1587 1587 1585 1582 1580 1577 1576 1574 1572 1569
1565 1564 1564 1563 1561 1564 1572 1575 1579 1585 1590 1592 1592 1592 1592 1594 1596 1596 1599 1599 1601 1602 1603 1604 1602 1603 1603 1601 1599 1598 1597 1596 1596 1595 1594 1594 1592 1590 1588 1588 1586 1584 1582 1580 1578 1576 1573 1570 1568
1565 1565 1566 1561 1563 1567 1570 1577 1583 1590 1592 1592 1592 1593 1594 1597 1597 1599 1599 1600 1601 1602 1602 1603 1602 1602 1601 1600 1599 1598 1597 1596 1596 1595 1594 1593 1591 1590 1589 1588 1586 1584 1581 1579 1577 1575 1572 1568 1566
1566 1567 1567 1562 1571 1577 1575 1580 1586 1589 1592 1592 1591 1593 1596 1595 1598 1598 1598 1600 1601 1602 1603 1602 1601 1601 1601 1601 1600 1599 1598 1597 1595 1594 1592 1593 1592 1591 1590 1588 1586 1583 1582 1580 1577 1575 1572 1569 1568
1566 1566 1563 1567 1575 1577 1580 1583 1586 1587 1589 1591 1591 1592 1596 1595 1595 1597 1599 1600 1601 1601 1602 1603 1601 1602 1602 1601 1600 1599 1598 1597 1596 1594 1592 1591 1590 1590 1590 1588 1585 1582 1581 1579 1577 1575 1572 1569 1567
1567 1566 1562 1566 1574 1579 1582 1585 1586 1587 1589 1591 1592 1592 1596 1594 1596 1597 1598 1600 1601 1601 1601 1602 1602 1602 1601 1601 1600 1600 1599 1598 1596 1595 1593 1591 1590 1589 1587 1587 1584 1582 1580 1578 1576 1574 1571 1567 1566
1566 1563 1568 1569 1574 1579 1581 1586 1586 1587 1588 1590 1591 1591 1595 1594 1596 1597 1598 1599 1600 1600 1601 1602 1602 1601 1601 1601 1600 1600 1599 1597 1596 1595 1594 1592 1591 1589 1587 1586 1584 1582 1580 1578 1576 1573 1571 1568 1565
1569 1567 1570 1571 1574 1575 1582 1586 1587 1588 1588 1589 1591 1589 1592 1594 1593 1595 1597 1598 1599 1600 1601 1601 1601 1601 1602 1601 1600 1600 1599 1598 1596 1596 1594 1593 1591 1590 1588 1586 1584 1582 1580 1578 1576 1574 1571 1568 1566
1569 1567 1569 1573 1575 1576 1583 1584 1587 1587 1589 1589 1590 1591 1590 1591 1592 1594 1597 1598 1600 1600 1601 1601 1602 1601 1602 1601 1600 1599 1598 1597 1597 1596 1595 1593 1592 1590 1589 1587 1585 1583 1581 1579 1576 1574 1572 1570 1567
1570 1566 1571 1575 1576 1577 1581 1583 1585 1587 1587 1588 1589 1588 1589 1589 1591 1593 1596 1598 1599 1600 1600 1601 1601 1601 1601 1601 1600 1599 1598 1598 1597 1596 1595 1594 1593 1591 1590 1588 1586 1583 1581 1579 1576 1574 1572 1570 1568
1574 1571 1577 1579 1580 1581 1582 1584 1585 1584 1584 1583 1584 1586 1586 1588 1591 1594 1596 1598 1598 1599 1599 1600 1600 1600 1601 1600 1599 1598 1598 1598 1597 1596 1595 1595 1594 1592 1590 1589 1587 1585 1582 1581 1577 1575 1572 1570 1568
1574 1580 1580 1582 1582 1582 1582 1583 1582 1582 1581 1581 1583 1584 1584 1587 1589 1592 1595 1596 1597 1597 1598 1598 1599 1599 1600 1599 1599 1598 1598 1597 1597 1596 1595 1594 1593 1592 1591 1589 1587 1584 1582 1580 1578 1577 1573 1570 1569
1576 1581 1582 1583 1583 1583 1583 1581 1581 1578 1579 1580 1580 1581 1583 1585 1588 1591 1593 1594 1595 1595 1596 1597 1598 1598 1599 1598 1598 1597 1597 1596 1596 1596 1595 1593 1593 1592 1590 1588 1587 1585 1583 1580 1578 1577 1573 1571 1570
1582 1582 1582 1582 1582 1582 1582 1580 1581 1573 1575 1576 1578 1580 1581 1582 1584 1588 1589 1592 1593 1594 1595 1596 1597 1597 1597 1597 1597 1596 1596 1595 1595 1595 1594 1594 1592 1591 1589 1588 1586 1585 1582 1581 1578 1576 1574 1572 1570
1582 1579 1581 1580 1581 1580 1582 1576 1572 1570 1570 1573 1574 1577 1578 1579 1581 1583 1586 1588 1591 1592 1593 1594 1595 1595 1595 1595 1595 1595 1595 1595 1594 1594 1593 1592 1591 1590 1588 1587 1586 1584 1582 1580 1579 1576 1574 1573 1570
1578 1577 1571 1578 1580 1581 1582 1561 1565 1568 1570 1571 1573 1574 1574 1576 1579 1583 1585 1586 1588 1590 1590 1591 1592 1592 1593 1593 1592 1593 1593 1593 1592 1592 1591 1591 1590 1589 1588 1586 1585 1583 1582 1580 1578 1576 1574 1572 1570
1574 1570 1574 1573 1579 1579 1579 1561 1563 1566 1568 1568 1570 1571 1573 1575 1574 1576 1579 1583 1585 1586 1587 1588 1588 1589 1589 1589 1589 1589 1589 1589 1590 1590 1589 1589 1588 1587 1586 1585 1584 1582 1581 1580 1578 1576 1574 1572 1570
1577 1574 1573 1575 1576 1578 1573 1563 1560 1562 1563 1563 1565 1567 1568 1568 1571 1575 1579 1581 1582 1582 1583 1583 1584 1584 1585 1585 1585 1585 1585 1585 1586 1586 1586 1586 1586 1585 1584 1583 1582 1581 1580 1578 1577 1575 1573 1571 1569
1580 1580 1577 1571 1578 1577 1564 1557 1553 1553 1556 1557 1559 1560 1560 1565 1573 1575 1573 1575 1575 1576 1577 1577 1578 1580 1580 1580 1581 1581 1581 1581 1582 1582 1583 1582 1582 1582 1581 1581 1580 1579 1578 1577 1575 1574 1572 1570 1567
1580 1578 1570 1572 1578 1578 1560 1550 1543 1546 1547 1551 1554 1554 1559 1565 1567 1568 1568 1565 1566 1569 1571 1573 1575 1576 1576 1576 1577 1577 1577 1577 1578 1578 1578 1578 1579 1579 1578 1578 1577 1577 1576 1575 1574 1572 1571 1569 1566
1576 1578 1577 1581 1574 1572 1565 1536 1539 1545 1547 1547 1548 1551 1555 1559 1561 1561 1558 1561 1564 1565 1567 1568 1570 1572 1572 1573 1573 1573 1572 1573 1574 1574 1575 1575 1575 1575 1575 1575 1574 1574 1573 1573 1572 1570 1569 1567 1565
1578 1582 1583 1581 1575 1564 1568 1547 1533 1539 1538 1543 1544 1546 1550 1553 1553 1555 1555 1555 1558 1559 1561 1562 1564 1565 1567 1568 1569 1569 1570 1569 1570 1570 1570 1571 1571 1571 1571 1571 1571 1571 1570 1570 1569 1568 1566 1565 1564
1579 1585 1584 1583 1577 1576 1567 1564 1528 1538 1536 1539 1542 1544 1545 1545 1546 1547 1549 1552 1553 1553 1555 1557 1558 1559 1561 1562 1564 1565 1566 1567 1567 1567 1566 1567 1567 1567 1567 1567 1568 1568 1567 1567 1566 1565 1564 1562 1561
1587 1584 1583 1583 1577 1565 1570 1568 1532 1535 1539 1539 1542 1542 1541 1541 1542 1544 1546 1547 1546 1548 1548 1550 1551 1552 1555 1556 1558 1559 1560 1562 1562 1563 1563 1563 1563 1563 1563 1563 1563 1564 1564 1564 1563 1562 1561 1560 1558
1584 1578 1565 1563 1562 1558 1576 1570 1536 1538 1540 1541 1542 1541 1540 1539 1540 1541 1542 1542 1542 1541 1542 1543 1544 1545 1547 1548 1549 1551 1553 1556 1557 1558 1558 1559 1559 1558 1558 1559 1559 1559 1559 1559 1559 1559 1558 1557 1555
1585 1582 1574 1583 1570 1562 1580 1561 1534 1539 1540 1539 1539 1539 1538 1538 1539 1539 1539 1539 1538 1536 1535 1535 1535 1536 1539 1540 1541 1543 1546 1548 1550 1552 1553 1553 1554 1554 1554 1554 1554 1554 1553 1553 1554 1554 1553 1552 1551
1585 1580 1590 1584 1593 1583 1557 1545 1535 1537 1536 1536 1537 1536 1536 1536 1536 1536 1536 1535 1534 1531 1529 1528 1528 1528 1528 1530 1533 1535 1537 1539 1541 1544 1546 1547 1548 1548 1549 1549 1549 1549 1549 1548 1548 1548 1548 1547 1546
1589 1592 1584 1582 1588 1576 1553 1555 1541 1534 1531 1535 1536 1535 1535 1534 1533 1533 1531 1529 1526 1524 1523 1521 1520 1520 1522 1522 1524 1527 1530 1532 1534 1536 1537 1539 1541 1542 1543 1543 1543 1544 1544 1544 1543 1542 1542 1542 1541
1589 1586 1591 1590 1587 1580 1572 1544 1528 1531 1532 1533 1533 1533 1533 1532 1531 1529 1526 1523 1521 1518 1516 1515 1514 1513 1512 1514 1515 1515 1519 1523 1526 1527 1530 1531 1534 1535 1536 1537 1538 1538 1539 1538 1537 1537 1537 1536 1535
1586 1582 1579 1580 1584 1589 1590 1558 1533 1533 1534 1535 1533 1533 1531 1529 1526 1523 1521 1518 1516 1514 1511 1509 1507 1506 1506 1505 1506 1508 1511 1513 1516 1518 1521 1524 1526 1528 1529 1530 1531 1532 1532 1533 1532 1532 1531 1531 1529
Wind_Speed
3 4 3 1 3 0 3 4 3 5 4 3 2 2 6 6 4 3 12 12 10 7 3 3 3 6 6 6 6 5 8 9 9 10 10 12 12 12 13 14 14 13 11 13 13 14 14 13 13
3 3 3 1 3 3 4 3 5 5 8 7 5 2 2 4 4 8 13 11 10 5 0 2 1 6 3 4 5 7 8 9 11 12 13 11 11 12 13 14 13 12 13 12 13 12 12 13 15
2 2 1 1 1 3 3 3 8 9 6 2 3 4 2 4 7 13 9 10 7 3 1 2 3 3 2 3 5 6 7 11 9 8 5 10 10 10 12 13 11 12 13 13 13 13 13 13 13
0 2 2 2 4 4 3 8 11 9 3 2 4 5 4 6 11 7 14 11 6 3 4 2 2 2 2 4 6 6 8 6 8 8 8 10 9 10 11 10 11 11 11 13 11 12 13 14 15
2 1 2 3 5 4 4 7 10 4 5 6 3 5 5 9 9 12 12 9 5 5 6 4 2 2 2 3 4 5 5 6 7 8 9 8 10 10 9 11 12 13 13 12 14 13 13 14 14
1 1 4 4 4 4 6 9 6 3 5 5 3 7 5 10 11 15 11 7 6 5 5 5 1 1 2 3 4 5 6 7 8 8 9 10 10 9 9 12 13 14 13 14 13 13 13 15 14
0 1 2 4 6 6 5 8 6 5 6 4 5 5 4 11 14 14 11 8 6 5 3 3 2 1 1 2 2 5 7 6 6 7 9 10 10 10 11 12 14 15 15 16 15 15 16 16 16
2 0 4 2 6 4 7 8 3 5 4 4 6 3 3 14 17 15 12 8 6 5 5 5 4 2 2 1 2 4 6 6 6 7 8 9 9 10 11 12 14 15 15 16 16 15 15 16 17
2 2 3 4 5 4 9 7 5 3 4 6 6 2 4 15 18 17 13 10 8 7 6 4 4 4 4 3 3 5 5 5 6 7 8 9 9 9 10 10 12 13 14 15 16 16 16 16 17
2 1 2 2 2 2 8 7 8 5 7 8 7 8 8 15 18 17 15 11 9 8 7 6 5 4 3 3 3 4 4 4 4 6 7 7 8 8 8 10 11 12 13 14 15 16 17 18 17
3 2 4 2 0 0 5 6 6 6 7 10 9 13 13 16 19 17 15 13 10 10 8 6 5 5 4 4 4 4 4 4 3 4 6 7 7 8 9 8 9 11 12 13 15 17 18 18 19
1 3 2 2 1 2 4 3 4 12 6 2 8 10 13 18 20 19 17 15 13 10 9 7 6 6 5 5 4 5 4 3 4 5 6 6 7 8 8 9 10 12 13 14 15 15 17 17 18
3 3 2 2 2 0 3 6 8 12 11 10 6 11 13 16 19 18 16 15 13 12 10 9 8 7 6 5 6 5 5 4 4 4 5 6 6 6 7 9 10 12 13 13 14 14 16 16 16
3 2 2 1 2 2 5 5 3 3 12 12 13 11 14 17 20 19 19 17 16 13 11 11 9 8 7 6 7 6 6 6 5 4 4 4 5 6 8 8 10 11 12 13 14 14 15 15 16
3 2 3 4 3 2 4 9 11 10 8 13 14 14 16 18 21 22 20 18 15 13 12 12 11 10 9 8 8 8 8 7 7 6 5 4 5 5 6 7 8 10 11 12 12 12 13 13 15
2 3 3 3 3 1 2 5 4 8 11 13 14 15 17 20 21 20 19 18 17 15 15 13 14 11 10 10 10 10 9 9 8 7 6 6 6 6 6 6 7 8 9 10 11 11 12 12 13
1 4 4 2 4 1 7 9 3 7 12 14 15 17 17 18 22 23 22 21 19 18 17 15 15 14 13 13 13 12 11 11 10 9 8 8 7 6 6 7 7 7 9 9 9 10 11 12 13
4 4 4 6 1 6 11 21 18 13 15 18 16 17 19 22 24 22 22 22 22 21 20 19 18 17 16 16 16 15 14 13 12 11 11 10 9 8 7 7 7 7 8 9 9 9 10 11 13
2 5 8 6 1 5 10 19 19 20 19 21 21 20 23 23 17 18 22 25 26 26 25 24 22 20 20 19 18 18 16 14 14 13 13 12 11 10 9 8 8 8 8 9 10 10 10 10 13
3 6 6 5 1 6 12 22 14 5 14 22 22 23 21 17 19 20 24 29 31 29 29 28 25 24 23 21 20 19 18 18 16 16 15 13 13 13 11 10 10 9 9 10 10 10 10 9 12
3 4 4 5 10 4 15 6 1 2 4 8 15 20 19 18 20 22 26 30 30 31 31 31 28 26 25 23 23 23 23 21 19 17 16 14 15 15 14 12 12 12 11 10 10 10 11 9 9
5 1 3 7 8 4 7 5 2 5 4 2 4 12 17 19 21 22 24 29 31 31 31 32 31 29 28 28 28 27 24 23 20 18 16 17 16 16 15 14 14 13 13 12 11 12 11 11 8
3 1 3 4 5 5 2 4 2 2 6 7 7 0 9 15 20 24 27 27 29 30 31 31 32 33 32 32 31 29 27 25 22 22 20 18 18 18 17 16 16 15 15 13 13 12 12 12 11
1 4 2 2 2 3 3 4 1 2 3 2 3 2 1 4 12 17 21 25 29 30 33 33 34 35 35 35 34 33 30 27 26 25 23 21 20 20 19 18 17 17 17 15 15 14 13 13 12
2 6 2 2 2 3 2 5 7 2 3 4 3 2 1 3 4 3 9 17 24 30 32 34 36 38 37 38 38 36 33 31 28 26 25 24 23 22 20 19 19 18 18 17 16 16 15 14 14
3 4 3 4 4 6 3 5 1 1 6 11 10 7 6 7 8 5 3 8 14 20 27 32 36 37 38 39 40 38 36 34 31 29 28 26 25 23 22 22 21 19 19 18 18 18 16 16 16
2 1 2 2 1 4 3 5 6 2 3 3 9 10 10 9 5 5 9 14 17 20 23 27 32 35 37 39 40 40 39 37 34 31 29 28 27 26 24 24 23 22 21 20 19 19 18 17 16
2 2 1 0 4 5 1 6 7 3 4 4 9 13 11 10 2 13 20 21 21 18 18 23 25 30 34 36 38 40 41 39 36 35 32 30 28 27 26 25 25 24 23 22 21 21 19 19 18
4 2 1 1 2 3 5 4 2 6 4 4 11 13 12 11 11 17 23 24 20 19 20 19 21 26 31 35 37 38 39 40 39 38 35 32 30 29 28 27 26 26 25 24 24 22 21 20 19
2 2 4 2 3 1 2 8 3 6 7 7 11 13 14 17 20 28 29 20 16 18 17 17 18 22 26 29 34 36 35 36 39 39 37 34 32 30 29 28 28 28 27 26 26 24 23 22 21
Wind_Direction
35 35 50 24 225 124 93 97 99 121 124 60 84 4 48 42 358 16 155 155 158 170 212 335 2 74 73 60 60 45 49 45 42 37 37 33 25 25 19 33 23 17 10 22 17 16 18 10 6
23 28 46 265 282 279 99 120 121 64 112 117 92 70 69 80 68 133 145 158 157 167 233 59 74 88 83 56 43 49 51 47 35 31 34 34 18 23 19 25 20 19 22 17 20 17 6 6 11
45 61 277 352 11 23 63 115 120 115 133 141 123 66 79 103 120 141 160 158 154 171 261 134 132 135 90 22 31 31 30 44 37 42 18 36 23 25 28 22 22 22 19 19 22 20 8 6 16
92 341 70 287 88 85 66 126 136 138 135 159 135 104 93 147 143 153 160 158 158 172 124 169 139 108 44 31 32 34 40 29 29 34 25 36 36 37 42 24 18 17 21 16 23 20 13 19 18
44 248 195 130 105 113 124 128 153 144 133 148 187 130 130 157 159 158 160 158 161 146 137 125 141 81 73 50 37 40 25 10 2 4 10 14 21 37 45 29 20 26 27 25 23 22 16 24 23
202 263 228 200 124 119 131 148 160 154 146 150 167 150 145 182 168 164 166 164 157 154 144 147 210 114 82 67 39 22 7 5 3 10 9 5 11 38 35 32 21 30 26 22 20 19 18 16 15
92 270 85 136 141 162 161 169 196 180 160 172 157 178 155 176 169 172 169 169 164 162 166 193 204 252 359 41 32 6 354 359 3 13 11 9 10 9 12 12 16 20 20 21 22 21 18 17 13
69 116 144 159 178 131 147 165 182 199 161 168 176 206 161 186 180 179 182 181 176 183 196 209 219 232 242 311 333 345 349 351 2 12 16 16 15 15 13 15 17 20 21 22 25 27 25 20 17
47 203 155 154 176 124 160 182 171 196 163 184 198 175 192 180 189 186 188 190 198 201 203 207 224 210 222 235 295 327 337 353 357 8 14 20 20 22 17 18 22 21 23 26 26 25 27 26 24
356 250 100 92 123 133 177 204 177 188 199 216 212 218 198 187 193 190 190 191 200 208 213 212 215 219 236 264 290 306 319 328 352 8 12 18 24 25 24 23 23 25 23 22 25 23 25 25 24
12 46 121 108 114 178 177 201 191 227 232 237 224 203 201 190 191 193 195 196 203 211 217 214 213 220 235 260 285 301 297 300 327 2 14 19 22 23 22 21 25 26 26 23 23 21 20 18 18
135 74 34 94 101 144 186 163 228 228 248 170 207 186 200 195 197 197 198 197 199 212 218 221 216 221 233 252 270 273 269 289 321 349 2 11 19 22 17 19 20 22 21 19 19 19 20 17 12
54 107 63 66 153 205 191 235 255 252 240 235 224 208 206 201 200 201 202 203 206 212 221 226 224 222 232 252 266 270 273 284 293 312 348 7 8 11 14 17 18 17 17 15 16 14 17 15 11
62 111 132 168 183 223 252 251 262 235 212 214 222 217 209 205 201 199 204 207 212 213 222 230 231 230 232 249 262 266 263 266 275 297 316 328 356 1 9 8 10 13 14 11 10 12 13 11 4
135 233 209 207 213 254 283 246 236 229 199 205 214 212 206 206 201 208 212 211 212 217 223 231 234 236 235 245 260 266 264 263 264 272 296 324 332 342 353 358 4 7 7 7 8 7 8 6 4
248 237 287 136 194 194 254 285 184 205 203 213 212 211 209 209 210 210 211 214 214 215 226 233 235 238 239 244 253 262 260 259 262 272 288 299 309 324 332 340 349 356 1 1 2 3 5 3 1
212 327 326 293 206 258 230 284 176 192 209 225 221 218 215 213 213 213 214 217 218 222 227 233 237 238 241 243 248 254 258 256 258 263 269 276 287 299 312 322 329 341 349 351 354 353 356 359 358
338 324 312 295 98 239 258 266 266 234 219 224 223 223 220 218 220 217 219 222 223 226 228 232 235 235 239 243 245 250 255 254 256 261 264 270 275 283 296 303 313 327 333 338 343 345 348 352 355
318 297 300 306 6 290 266 276 279 265 232 235 230 225 224 224 221 216 221 226 227 229 230 232 235 236 238 242 246 249 254 258 257 260 262 264 271 273 280 288 296 305 312 320 331 337 343 343 351
276 303 331 285 244 288 302 293 299 291 245 237 233 230 229 226 218 217 225 227 229 232 234 235 237 238 241 244 247 248 250 253 259 260 261 263 265 269 270 279 285 289 296 308 320 326 332 336 342
277 298 332 305 313 253 305 258 127 149 250 234 233 236 234 226 222 221 225 230 233 234 236 237 240 241 244 246 247 246 248 251 254 260 261 261 260 262 265 269 275 280 286 292 301 311 319 325 329
297 70 296 307 327 321 359 305 66 0 18 239 217 226 230 228 229 226 227 232 236 242 240 242 241 241 243 244 246 250 253 255 256 256 258 258 259 260 263 265 269 273 280 285 290 299 306 313 315
349 335 309 300 293 291 138 265 94 22 64 53 58 204 232 230 231 233 234 238 244 245 245 246 244 243 242 243 245 248 252 255 254 254 256 258 260 259 261 261 264 267 271 276 278 285 293 297 298
52 265 254 233 262 236 56 334 197 100 69 56 66 5 255 225 233 238 239 242 244 246 246 246 245 245 243 244 246 247 251 254 256 256 257 258 258 258 257 258 260 263 267 271 274 278 281 284 288
259 284 297 230 235 358 73 283 282 217 257 270 308 266 172 123 121 194 244 251 252 249 251 249 247 247 245 244 244 247 249 251 255 257 256 257 259 258 258 257 258 261 263 266 270 273 278 282 283
11 334 349 314 322 316 137 239 96 183 276 265 239 230 184 141 120 82 347 303 282 266 256 252 250 249 247 247 247 247 248 249 252 254 255 256 257 260 259 257 258 260 261 262 266 270 274 278 282
63 323 14 303 186 272 297 268 260 289 219 220 200 207 191 172 157 342 319 312 298 280 271 262 255 252 249 249 248 247 247 247 249 252 255 256 256 257 258 258 259 259 259 260 263 266 271 275 278
335 90 256 163 321 304 273 283 278 244 234 192 209 215 208 199 254 326 326 312 301 290 285 268 262 257 254 251 249 249 248 248 249 249 252 255 257 256 257 258 257 258 259 259 260 263 266 269 274
151 179 134 312 300 299 310 279 237 260 247 262 218 216 223 234 292 316 320 313 296 293 292 281 271 261 255 251 249 247 246 247 248 248 250 252 255 255 255 257 259 258 258 258 259 263 264 267 271
310 222 219 240 188 180 271 271 193 259 275 270 254 252 255 267 302 321 317 313 299 299 296 291 284 274 266 256 251 248 247 246 246 247 247 250 253 256 257 256 258 258 258 259 259 262 264 266 269